Regional Weather Roundup
Issued by NWS

Home | Current Version | Previous Version | Graphics & Text | Print | Product List | Glossary On
Versions: 1 2 3 4 5 6 7 8 9 10 11 12 13 14 15 16 17 18 19 20 21 22 23 24 25 26 27 28 29 30 31 32 33 34 35 36 37 38 39 40 41 42 43 44 45 46 47 48 49 50
888
ASUS43 KLMK 221110
RWRKY
KENTUCKY REGIONAL WEATHER ROUNDUP
NATIONAL WEATHER SERVICE LOUISVILLE KY
700 AM EDT FRI MAY 22 2015

NOTE "FAIR" INDICATES FEW OR NO CLOUDS BELOW 12,000 FEET
WITH NO SIGNIFICANT WEATHER AND/OR OBSTRUCTIONS TO VISIBILITY.

KYZ001>023-026-027-061>063-070>075-221200-
WESTERN AND SOUTH CENTRAL KENTUCKY

CITY           SKY/WX    TMP DP  RH WIND       PRES   REMARKS
PADUCAH        CLEAR     45  43  93 CALM      30.26R FOG
HENDERSON      CLEAR     45  43  93 SW6       30.25R
OWENSBORO      CLEAR     44  43  97 CALM      30.26R
HOPKINSVILLE   CLEAR     45  44  94 CALM      30.26R
BOWLING GREEN  FOG       43  40  89 CALM      30.27R VSB 3/4
GLASGOW        CLEAR    N/A N/A N/A CALM      30.26R FOG
$$

KYZ024-025-028>034-038-045-046-053-221200-
NORTH CENTRAL KENTUCKY

CITY           SKY/WX    TMP DP  RH WIND       PRES   REMARKS
LOUISVILLE/SDF CLEAR     48  43  82 SW5       30.23R
LOUISVILLE/LOU CLEAR     45  42  89 CALM      30.24R FOG
FORT KNOX      CLEAR     41  40  97 SW2       30.23R FOG
$$

KYZ035>037-039>044-047>052-055>060-089>105-221200-
NORTHEAST KENTUCKY

CITY           SKY/WX    TMP DP  RH WIND       PRES   REMARKS
LEXINGTON      CLEAR     44  41  89 SW6       30.23R
COVINGTON      CLEAR     43  41  93 SW3       30.19R FOG
FRANKFORT      CLEAR     43  40  89 SW3       30.22R
$$

KYZ054-064>069-076>088-106>120-221200-
SOUTHEAST KENTUCKY

CITY           SKY/WX    TMP DP  RH WIND       PRES   REMARKS
JACKSON        FOG       44  43  96 CALM      30.24R VSB<1/4
LONDON         FOG       41  38  89 S3        30.25R VSB<1/4
SOMERSET       FOG       41  41 100 CALM      30.27R VSB<1/4
MIDDLESBORO    MOCLDY    43  43  99 CALM      30.25R
MONTICELLO     FOG       43  43 100 CALM      30.29R VSB<1/4
$$




USA.gov is the U.S. government's official web portal to all federal, state and local government web resources and services.